Location: Marcé
(47.5801°N, 0.3280°W)
Time: 06:35:09
(UTC+01:00)

Envisat - Pass Details

Date: 21 October 2021
Orbit: 764 x 766 km, 98.2° (Epoch: 04 December)

Event Time Altitude Azimuth Distance (km) Brightness Sun altitude
Rises 06:28:57 0° 21° (NNE) 3,245 6.6 -20.9°
Reaches altitude 10° 06:31:28 10° 30° (NNE) 2,313 6.0 -20.5°
Maximum altitude 06:36:06 34° 96° (E) 1,241 4.7 -19.7°
Drops below altitude 10° 06:40:41 10° 161° (SSE) 2,296 5.6 -18.9°
Sets 06:43:10 0° 170° (S) 3,217 6.3 -18.5°
